Wind_Speed
5 5 6 2 1 1 3 4 1 10 9 2 17 4 5 3 2 0 15 28 27 26 26 24 22 21 22 20 20 19 18 18 17 17 15 13 10 8 7 5 6 6 8 8 11 12 11 8 6
3 5 2 2 2 6 4 2 7 7 5 9 12 6 3 3 2 8 26 28 27 27 26 26 24 21 21 20 20 19 19 17 16 15 12 10 8 6 6 6 5 5 5 6 7 8 8 8 8
3 3 3 2 2 6 5 3 8 5 9 14 5 5 2 2 2 22 26 31 28 27 27 26 24 22 21 20 20 19 18 17 16 13 10 8 7 5 4 4 4 5 4 5 5 5 5 4 6
3 3 3 2 7 3 2 6 10 10 6 5 8 6 4 2 8 19 29 31 28 26 26 25 23 22 21 20 20 19 18 16 14 11 9 7 6 5 5 4 4 4 3 4 3 3 4 4 5
2 2 2 1 3 2 2 8 14 7 5 6 2 4 5 3 14 22 31 30 26 25 24 24 22 21 21 21 19 18 16 14 12 10 8 7 7 7 7 7 7 6 6 6 5 4 4 3 4
1 1 1 4 4 4 6 14 10 2 5 7 8 8 5 6 16 26 28 27 24 23 23 22 21 20 20 20 18 16 14 13 12 10 9 8 8 7 8 8 8 9 9 9 8 7 6 6 5
3 1 3 3 4 5 5 12 5 7 8 5 13 5 5 11 18 25 27 25 23 22 22 21 21 20 19 18 18 16 14 13 13 11 11 10 9 8 9 10 10 11 11 11 10 9 8 7 6
2 1 4 7 4 4 9 11 8 8 3 14 6 4 7 18 22 23 25 23 22 22 21 20 20 20 19 18 18 17 15 15 14 13 12 10 10 10 11 10 10 11 11 11 9 9 8 7 9
2 2 4 4 5 5 9 4 6 5 15 4 2 6 10 26 26 24 26 23 23 22 21 21 19 19 19 19 18 17 16 16 15 14 12 11 10 10 10 10 11 10 9 9 8 7 7 7 8
2 2 1 1 4 5 6 5 8 4 12 4 6 7 24 27 27 24 26 25 25 23 22 21 21 19 18 18 18 17 16 14 14 14 13 12 11 10 9 9 7 7 7 8 7 5 6 6 7
2 2 1 1 6 6 5 6 5 6 6 7 11 21 25 26 26 26 26 25 24 22 21 21 21 20 19 18 17 17 16 15 15 14 13 13 12 11 10 8 7 6 6 6 6 6 5 5 6
3 3 2 1 6 4 8 11 4 2 4 3 14 25 26 25 26 25 23 23 21 22 21 20 20 21 20 19 18 18 17 17 16 15 14 14 13 12 11 9 7 6 6 7 7 7 8 7 7
1 2 3 5 3 7 13 8 6 4 8 15 19 25 23 22 24 23 21 18 19 19 20 20 19 19 19 19 18 18 18 18 16 16 14 15 14 13 12 10 9 8 6 7 9 9 9 10 11
2 5 9 3 6 6 9 7 4 5 13 17 20 20 22 21 23 20 21 20 20 18 19 18 18 18 18 18 17 17 18 17 17 16 16 15 16 15 14 14 13 11 9 9 9 10 11 12 12
1 1 3 8 2 4 8 4 3 14 15 18 15 18 19 21 19 21 19 19 18 19 18 18 17 18 18 17 16 18 16 15 15 14 13 15 15 17 17 16 17 14 14 14 15 16 18 17 16
1 2 1 2 1 2 0 2 6 16 17 16 16 17 17 19 21 20 21 20 20 20 20 20 19 20 19 17 17 19 17 18 18 16 16 15 15 14 15 19 20 20 18 18 19 20 19 20 19
4 3 2 1 1 3 2 1 5 15 14 15 16 17 17 17 19 22 22 20 20 20 21 20 22 21 22 20 20 21 22 21 19 23 22 20 20 19 20 20 20 21 22 21 20 21 20 22 22
3 3 1 1 2 3 4 5 6 16 16 16 16 17 17 18 21 20 21 22 22 22 23 24 24 24 24 25 25 25 26 26 25 25 25 23 22 21 22 23 23 21 23 24 23 22 21 22 23
6 1 1 3 4 3 7 7 5 16 16 16 16 18 21 23 19 21 23 24 26 28 29 27 27 27 28 28 29 29 30 29 29 29 28 28 27 25 24 25 24 23 25 25 26 27 27 25 25
1 2 3 3 4 8 2 2 3 13 17 19 18 19 21 21 21 23 25 28 30 30 29 29 29 28 29 30 30 31 31 31 30 30 28 27 29 28 28 26 26 25 26 26 27 27 28 27 27
3 5 4 2 4 1 2 2 3 5 12 10 18 19 20 22 22 22 23 26 27 29 28 27 26 26 26 28 30 32 33 33 31 28 26 24 22 23 26 27 28 28 28 29 28 29 31 30 25
3 6 3 7 6 1 4 2 3 5 6 11 17 19 23 24 25 27 25 24 24 26 25 25 23 22 21 23 27 26 28 29 26 25 25 24 23 23 23 25 27 28 30 32 32 32 33 34 35
2 1 9 5 4 2 2 3 2 0 7 12 13 18 20 22 23 24 25 24 20 22 23 24 24 22 22 25 27 30 31 30 28 30 29 29 29 28 28 27 26 28 28 29 31 32 34 35 37
10 6 8 5 2 2 1 3 2 3 5 6 13 16 19 19 21 22 23 22 23 23 24 24 25 24 25 27 29 32 34 34 36 37 36 36 36 34 32 32 32 32 32 30 29 33 38 37 39
8 5 2 3 3 1 4 4 2 5 8 11 13 10 11 12 16 19 19 18 23 26 27 27 28 29 29 29 32 34 36 38 41 42 44 44 44 42 41 40 40 37 36 36 32 26 36 41 39
11 4 3 1 0 3 3 4 2 3 8 6 3 7 7 6 4 4 5 7 9 12 16 19 23 25 28 32 35 37 39 41 43 45 46 47 49 48 47 43 44 38 40 33 36 46 36 41 40
4 3 3 5 2 3 0 2 6 1 9 14 14 15 17 17 16 14 13 13 11 8 5 5 7 10 13 17 20 23 25 28 30 33 36 41 43 43 42 42 42 44 45 40 39 37 31 26 35
3 8 3 1 4 3 2 4 2 3 10 9 12 17 18 20 21 22 24 23 21 19 17 15 14 12 9 8 8 9 11 13 15 18 21 24 26 30 34 38 44 45 50 43 42 39 32 42 34
4 4 5 4 2 2 3 3 1 7 5 3 8 13 16 18 20 21 25 26 25 23 21 20 18 15 12 10 13 13 13 11 11 14 15 16 22 29 36 39 43 45 48 44 43 37 31 29 33
1 3 5 3 4 1 2 1 3 1 6 8 9 11 15 18 21 23 23 23 22 22 21 21 22 23 23 23 23 23 20 15 13 17 22 27 30 31 33 31 27 29 32 32 38 33 32 33 35
Wind_Direction
138 137 118 114 148 32 55 70 76 117 147 179 154 190 194 83 164 334 157 160 162 160 156 162 160 157 161 160 160 156 156 152 154 157 159 156 152 147 133 126 131 128 120 119 129 133 143 157 168
158 135 90 82 50 72 55 58 124 129 122 138 145 116 119 114 111 146 152 157 162 160 160 162 163 163 163 163 160 161 159 156 155 157 159 163 166 176 182 179 172 169 146 138 143 149 159 170 178
120 86 40 47 79 62 83 101 126 122 126 144 150 67 55 26 109 150 158 154 164 163 163 164 167 167 165 165 162 160 162 161 160 162 168 179 191 209 229 226 203 188 171 151 150 156 168 194 201
36 30 61 28 69 82 84 133 137 138 135 140 127 81 65 316 165 152 157 159 167 163 164 167 170 172 170 169 164 160 162 167 172 174 180 186 200 218 229 215 223 211 206 191 187 197 220 214 230
75 12 26 61 43 63 99 132 142 143 121 118 127 98 87 62 159 157 159 162 167 164 167 169 173 174 177 175 172 171 173 179 187 189 200 216 229 236 238 235 239 238 239 248 256 266 265 261 234
59 22 16 46 65 73 113 143 149 117 145 137 111 113 106 127 160 158 161 163 169 167 169 172 174 178 182 182 183 184 189 194 202 207 220 235 244 246 242 242 242 249 256 263 268 270 264 261 259
273 187 29 4 77 117 143 161 178 143 149 150 139 104 131 153 165 162 166 166 172 174 175 178 181 186 190 192 197 200 205 211 219 229 235 243 249 254 255 252 251 251 255 261 267 272 262 263 267
223 269 26 33 22 63 143 165 163 155 106 138 134 148 165 170 164 167 168 172 177 181 184 186 188 194 198 204 208 212 219 228 235 239 244 249 255 262 262 258 259 258 257 253 251 259 252 248 267
216 93 53 27 20 343 162 154 152 116 138 115 121 138 167 163 163 166 171 177 184 188 192 196 197 200 204 209 215 220 226 232 237 240 246 250 251 256 258 258 254 253 247 251 244 236 236 242 249
54 88 72 321 343 321 216 175 152 137 151 115 98 133 154 164 167 168 175 181 189 194 198 202 205 208 210 213 219 223 227 228 231 235 240 242 249 252 254 253 250 245 238 235 232 232 242 242 249
108 135 168 40 328 324 193 147 137 149 203 194 167 150 155 163 170 176 181 187 192 195 201 203 207 212 216 219 223 227 230 232 238 240 241 243 245 245 246 244 235 237 242 244 259 263 258 264 255
162 212 186 282 322 309 161 140 95 216 336 177 159 159 158 165 173 179 184 189 194 198 203 209 211 213 216 221 226 230 232 235 239 241 241 242 240 239 235 237 235 236 246 254 268 287 288 290 286
261 291 282 329 7 89 129 117 127 51 100 129 141 157 161 165 175 182 186 191 195 199 203 210 216 220 222 225 228 231 236 238 241 242 238 236 234 227 230 235 235 235 246 265 273 282 287 294 291
267 298 318 353 85 110 124 117 141 121 133 134 150 165 169 173 177 185 195 198 201 204 208 213 217 224 228 231 231 233 237 240 242 241 238 234 229 230 240 243 238 239 252 266 276 278 284 290 294
243 308 39 43 72 104 124 136 68 151 151 149 159 172 181 187 191 198 198 204 209 218 221 225 224 227 229 230 223 224 229 229 227 225 227 228 232 237 243 249 237 243 254 263 269 269 274 280 285
47 48 67 8 333 81 326 328 119 163 161 159 169 180 192 199 202 205 210 214 220 224 228 231 232 231 228 226 222 220 222 223 221 220 221 224 231 238 244 247 246 251 257 263 264 270 275 278 277
22 114 43 359 248 134 219 298 145 174 181 174 180 191 199 208 220 222 222 224 229 232 235 234 235 237 234 231 230 228 226 227 229 229 231 234 238 244 250 254 254 252 251 257 263 268 272 272 278
122 119 150 283 91 216 182 233 169 184 191 200 194 200 207 216 223 223 228 232 235 241 243 244 243 242 242 240 238 238 238 236 235 235 238 239 240 245 251 252 254 255 257 256 259 267 271 272 276
106 116 314 255 226 280 240 244 193 189 204 208 211 213 217 223 234 238 241 242 244 246 249 251 250 248 248 245 244 245 246 246 246 246 248 249 250 253 255 256 258 257 258 259 262 263 266 269 277
165 278 271 275 339 208 215 232 210 186 219 216 214 219 227 236 239 240 245 250 252 253 254 254 255 256 255 254 252 252 255 256 258 259 261 259 256 254 252 254 257 259 261 263 261 260 262 270 277
239 236 207 177 108 167 222 182 204 216 231 227 226 227 233 236 241 245 248 249 252 253 252 255 257 260 260 257 256 257 256 259 263 262 262 259 259 257 256 261 263 261 259 261 265 264 267 270 266
284 224 219 162 188 144 328 84 242 227 248 237 235 231 235 237 241 248 247 247 249 253 255 252 252 254 257 258 257 261 266 267 271 273 271 269 268 269 270 269 268 266 264 265 266 267 266 271 270
323 81 155 135 137 214 170 245 146 236 236 242 238 236 239 238 237 241 244 244 248 254 254 253 248 248 249 253 255 257 257 260 264 265 266 265 264 263 262 263 264 264 266 270 276 275 271 267 265
151 101 92 98 186 256 7 252 125 196 244 249 237 239 247 241 247 251 254 251 249 253 256 256 255 255 257 259 260 260 264 265 266 268 267 268 268 266 261 258 253 251 253 255 263 277 275 276 278
216 205 153 171 181 30 338 208 295 312 311 278 287 279 287 271 262 268 270 267 266 261 265 266 269 265 262 262 266 267 267 270 270 270 272 272 271 269 267 262 257 255 251 247 253 253 274 280 275
187 230 229 249 224 68 146 210 162 346 336 343 342 19 19 14 324 295 324 333 317 301 289 282 280 280 276 275 273 275 276 276 277 277 277 277 277 276 274 274 268 261 257 252 255 263 249 272 275
161 195 31 104 50 254 200 239 255 253 54 33 48 61 54 62 67 74 80 72 64 51 18 333 312 300 294 287 285 286 286 283 283 285 286 284 283 284 283 281 277 265 264 274 276 243 247 258 276
258 132 141 83 168 208 173 279 207 353 357 17 58 68 66 68 70 74 77 74 71 66 58 51 45 39 30 21 3 342 328 311 300 291 292 292 292 289 286 282 278 275 276 277 271 241 252 244 266
140 166 69 105 310 215 186 212 194 293 337 63 65 71 75 76 76 74 72 66 56 47 39 37 37 36 29 9 357 349 336 325 320 315 303 294 293 290 286 282 275 274 272 271 254 248 248 249 248
85 149 171 209 177 67 304 165 350 360 118 113 92 78 77 78 78 71 63 57 52 49 44 38 32 25 18 10 2 356 350 342 323 310 301 296 296 295 292 284 285 286 271 261 240 254 249 247 251
Height
1504 1504 1504 1505 1509 1506 1510 1510 1505 1509 1512 1513 1516 1517 1518 1520 1520 1529 1525 1530 1534 1539 1543 1546 1549 1551 1554 1556 1558 1559 1561 1563 1565 1566 1568 1569 1570 1572 1573 1574 1575 1576 1577 1578 1578 1579 1579 1580 1579
1504 1504 1505 1504 1508 1511 1514 1506 1508 1509 1512 1513 1517 1518 1519 1521 1522 1523 1526 1530 1535 1538 1544 1546 1549 1553 1555 1557 1559 1561 1562 1565 1567 1568 1570 1571 1572 1573 1573 1575 1577 1577 1578 1578 1579 1580 1581 1581 1581
1504 1504 1505 1505 1508 1511 1511 1505 1507 1511 1513 1515 1517 1518 1520 1522 1521 1523 1528 1530 1536 1540 1545 1547 1550 1553 1557 1559 1561 1563 1565 1567 1568 1569 1571 1572 1573 1574 1574 1575 1576 1578 1578 1578 1579 1580 1581 1581 1581
1506 1507 1509 1507 1507 1504 1503 1504 1509 1512 1515 1515 1516 1519 1522 1521 1522 1525 1529 1533 1537 1542 1545 1548 1552 1555 1558 1561 1562 1564 1566 1568 1569 1570 1571 1573 1574 1574 1575 1576 1576 1577 1577 1578 1579 1580 1580 1580 1580
1507 1508 1507 1508 1506 1503 1504 1506 1509 1512 1513 1515 1516 1521 1525 1526 1525 1527 1531 1534 1538 1543 1547 1550 1553 1556 1559 1562 1564 1565 1568 1569 1571 1572 1572 1573 1574 1574 1575 1576 1576 1577 1577 1577 1578 1578 1579 1579 1580
1508 1510 1510 1511 1507 1504 1506 1509 1511 1512 1514 1516 1518 1521 1527 1528 1530 1531 1534 1537 1542 1546 1549 1552 1555 1558 1561 1563 1565 1567 1569 1570 1571 1572 1573 1574 1574 1575 1575 1576 1576 1576 1577 1578 1578 1578 1578 1578 1579
1509 1509 1510 1509 1506 1506 1507 1510 1511 1513 1515 1517 1518 1520 1527 1529 1531 1533 1536 1540 1544 1547 1551 1554 1557 1560 1562 1564 1566 1568 1569 1570 1571 1572 1573 1574 1574 1574 1575 1576 1576 1576 1576 1577 1577 1578 1577 1578 1578
1510 1508 1508 1507 1510 1509 1506 1509 1509 1512 1515 1517 1518 1519 1525 1526 1530 1534 1538 1542 1546 1549 1552 1555 1557 1560 1562 1564 1566 1568 1570 1571 1571 1572 1573 1573 1574 1574 1574 1574 1574 1575 1575 1575 1577 1577 1578 1578 1578
1509 1508 1513 1511 1509 1507 1507 1507 1510 1512 1513 1517 1519 1519 1520 1524 1530 1535 1539 1543 1547 1549 1552 1555 1557 1559 1561 1563 1565 1567 1569 1570 1571 1571 1571 1572 1573 1574 1574 1574 1574 1573 1574 1575 1576 1577 1576 1578 1578
1508 1509 1511 1507 1507 1505 1505 1508 1510 1513 1515 1518 1519 1519 1521 1525 1530 1535 1538 1541 1545 1547 1551 1554 1556 1558 1561 1563 1564 1566 1568 1569 1570 1570 1571 1571 1572 1571 1572 1572 1572 1573 1574 1574 1575 1576 1577 1576 1577
1508 1509 1509 1508 1507 1505 1504 1507 1511 1513 1514 1513 1516 1519 1522 1526 1530 1534 1538 1540 1543 1547 1549 1551 1554 1557 1560 1562 1563 1565 1566 1567 1568 1569 1569 1569 1570 1570 1571 1571 1572 1572 1573 1574 1576 1576 1576 1576 1577
1507 1508 1508 1507 1505 1503 1504 1508 1511 1513 1513 1512 1514 1518 1521 1527 1531 1535 1538 1540 1543 1546 1549 1551 1553 1555 1558 1560 1561 1563 1564 1565 1566 1567 1568 1569 1569 1570 1571 1571 1572 1573 1573 1573 1574 1575 1575 1575 1576
1507 1505 1506 1505 1504 1502 1504 1508 1511 1515 1514 1514 1517 1522 1525 1528 1532 1536 1539 1542 1544 1546 1549 1551 1553 1555 1557 1558 1560 1561 1563 1564 1565 1566 1566 1567 1568 1570 1571 1572 1572 1573 1573 1573 1574 1574 1573 1573 1574
1508 1505 1503 1503 1504 1504 1505 1509 1511 1517 1516 1518 1521 1524 1527 1530 1533 1537 1539 1541 1544 1546 1548 1549 1551 1553 1555 1556 1558 1559 1560 1562 1563 1564 1565 1566 1567 1569 1570 1572 1572 1572 1573 1573 1574 1574 1573 1573 1572
1508 1504 1501 1501 1502 1504 1505 1509 1511 1516 1518 1520 1523 1527 1529 1531 1534 1536 1539 1540 1542 1544 1547 1548 1550 1551 1552 1554 1555 1556 1558 1559 1560 1562 1563 1564 1566 1567 1569 1571 1572 1572 1573 1573 1572 1572 1572 1571 1571
1508 1507 1511 1503 1502 1505 1504 1515 1513 1516 1518 1521 1524 1527 1529 1531 1532 1535 1536 1538 1540 1542 1543 1546 1547 1548 1550 1551 1552 1553 1555 1556 1558 1559 1561 1562 1564 1565 1567 1568 1569 1571 1571 1571 1571 1570 1569 1570 1569
1510 1516 1514 1508 1503 1504 1505 1511 1511 1515 1518 1521 1523 1526 1528 1530 1532 1533 1534 1536 1538 1539 1541 1542 1544 1545 1546 1547 1548 1549 1551 1552 1554 1556 1558 1560 1561 1563 1564 1565 1566 1568 1568 1569 1568 1568 1568 1568 1567
1516 1514 1514 1513 1506 1504 1507 1506 1509 1515 1517 1518 1522 1525 1527 1528 1528 1530 1532 1533 1534 1536 1537 1539 1540 1541 1543 1545 1546 1548 1549 1550 1551 1552 1554 1556 1557 1558 1560 1560 1561 1564 1565 1566 1566 1566 1564 1564 1564
1507 1511 1513 1506 1502 1504 1504 1505 1506 1512 1516 1517 1520 1522 1523 1524 1525 1527 1527 1529 1530 1531 1532 1534 1536 1537 1540 1542 1544 1545 1546 1547 1548 1550 1552 1553 1554 1555 1556 1556 1558 1560 1560 1561 1561 1561 1561 1560 1559
1507 1510 1509 1504 1500 1503 1504 1505 1503 1508 1508 1511 1516 1518 1519 1520 1522 1522 1523 1524 1525 1525 1527 1530 1531 1533 1536 1538 1541 1542 1543 1545 1546 1546 1547 1548 1549 1549 1549 1549 1551 1552 1553 1553 1554 1555 1554 1554 1554
1505 1508 1507 1505 1504 1503 1505 1505 1504 1502 1506 1509 1511 1514 1515 1515 1516 1517 1518 1518 1519 1521 1523 1525 1527 1530 1532 1535 1537 1538 1539 1540 1540 1539 1539 1539 1541 1542 1542 1542 1543 1544 1545 1544 1546 1548 1549 1548 1547
1507 1495 1498 1503 1508 1513 1507 1520 1507 1500 1502 1504 1506 1507 1507 1509 1510 1510 1511 1512 1516 1517 1521 1523 1524 1526 1529 1531 1532 1532 1533 1534 1534 1535 1535 1534 1535 1535 1535 1536 1536 1536 1537 1537 1539 1540 1541 1542 1540
1498 1492 1497 1501 1508 1511 1513 1513 1499 1504 1501 1497 1497 1499 1500 1501 1503 1504 1504 1508 1512 1514 1516 1518 1520 1522 1524 1525 1527 1528 1527 1528 1529 1528 1528 1528 1528 1529 1529 1529 1530 1529 1530 1530 1534 1534 1534 1536 1536
1495 1498 1500 1504 1504 1520 1519 1512 1502 1501 1497 1492 1493 1495 1494 1497 1497 1498 1501 1505 1507 1509 1512 1514 1516 1519 1522 1522 1522 1522 1523 1523 1523 1521 1521 1519 1519 1520 1520 1520 1519 1518 1519 1519 1520 1527 1528 1529 1528
1495 1498 1515 1521 1519 1521 1517 1518 1499 1494 1495 1494 1492 1494 1495 1496 1496 1496 1498 1502 1504 1506 1508 1510 1511 1513 1515 1516 1515 1514 1514 1514 1514 1513 1512 1511 1510 1510 1509 1509 1509 1509 1507 1506 1510 1507 1519 1522 1522
1491 1490 1504 1532 1523 1517 1520 1517 1499 1496 1496 1492 1494 1494 1494 1492 1493 1494 1496 1497 1498 1500 1502 1505 1506 1508 1509 1509 1509 1509 1508 1507 1505 1504 1503 1502 1501 1501 1501 1503 1502 1498 1493 1498 1497 1498 1502 1513 1515
1492 1496 1494 1509 1525 1520 1513 1503 1494 1493 1495 1495 1494 1494 1495 1494 1494 1494 1494 1495 1496 1497 1499 1500 1502 1503 1503 1503 1503 1502 1501 1500 1498 1497 1496 1494 1493 1492 1493 1493 1492 1491 1489 1486 1489 1490 1496 1501 1505
1483 1490 1500 1505 1531 1531 1518 1516 1500 1495 1496 1498 1497 1497 1498 1498 1498 1498 1496 1496 1498 1500 1500 1501 1501 1501 1501 1500 1500 1498 1496 1494 1492 1491 1489 1488 1487 1487 1486 1485 1482 1480 1479 1482 1480 1482 1485 1483 1493
1490 1491 1501 1501 1510 1512 1519 1505 1496 1498 1501 1501 1502 1501 1501 1502 1503 1501 1500 1500 1501 1501 1502 1502 1502 1503 1502 1501 1499 1497 1495 1492 1489 1487 1485 1483 1482 1481 1478 1475 1473 1470 1468 1468 1471 1472 1474 1475 1481
1478 1482 1481 1494 1515 1516 1510 1501 1497 1499 1501 1503 1504 1503 1503 1503 1502 1502 1502 1502 1503 1503 1503 1503 1503 1503 1502 1499 1497 1494 1491 1489 1487 1485 1482 1480 1476 1473 1468 1466 1464 1461 1459 1457 1460 1462 1465 1466 1469